Flag for U.S.A. Weather past 2 weeks in Nashville, Tennessee, U.S.A.

Now
67 °F

Passing clouds.


Feels Like: 67 °F
Forecast: 66 / 90 °F
Wind: No wind

Location: Nashville International Airport

Current Time: Aug 1, 2015 at 7:41:39 AM

Latest Report: Aug 1, 2015 at 6:53 AM


Visibility: 10 mi

Pressure: 30.03 "Hg

Humidity: 93%

Dew point: 65 °F

Location of NashvilleLocation

Historic Weather in Nashville — Graph

°F

Nashville temperature yesterday

Maximum temperature yesterday: 90 °F (at 1:53 PM)
Minimum temperature yesterday: 66 °F (at 5:53 AM)
Average temperature yesterday: 79 °F

Past Weeks' High & Low Weather Summary

 TemperatureHumidityPressure
High95 °F (Jul 28, 2:53 PM)100% (Jul 22, 9:53 AM)30.09 "Hg (Jul 22, 9:53 AM)
Low66 °F (Jul 31, 5:53 AM)34% (Jul 30, 1:53 PM)29.78 "Hg (Jul 21, 3:53 AM)
Average82 °F74%29.95 "Hg
* Reported Jul 17 5:53 AM — Aug 1 5:53 AM, Nashville, Weather by CustomWeather, © 2015

Note: Actual official high and low records may vary slightly from our data, if they occured in-between our weather recording intervals... More about our weather records

Advertising

Nashville weather history for previous 24 hours

 ConditionsComfort  
Time TempWeatherWind HumidityBarometerVisibility
5:53 AM
Sat, Aug 1
66 °FPassing clouds.No wind93%30.00 "Hg10 mi
4:53 AM66 °FClear.No wind93%29.99 "Hg10 mi
3:53 AM68 °FClear.No wind90%29.99 "Hg10 mi
2:53 AM68 °FClear.No wind90%30.00 "Hg10 mi
1:53 AM70 °FClear.No wind81%30.01 "Hg10 mi
12:53 AM72 °FClear.No wind61%30.02 "Hg10 mi
11:53 PM
Fri, Jul 31
74 °FClear.No wind62%30.03 "Hg10 mi
10:53 PM78 °FClear.3 mph58%30.02 "Hg10 mi
9:53 PM79 °FPassing clouds.3 mph54%30.03 "Hg10 mi
8:53 PM79 °FPassing clouds.7 mph54%30.01 "Hg10 mi
7:53 PM83 °FPassing clouds.8 mph48%29.99 "Hg10 mi
6:53 PM86 °FScattered clouds.10 mph43%29.99 "Hg10 mi
5:53 PM88 °FPassing clouds.13 mph38%29.99 "Hg10 mi
4:53 PM89 °FScattered clouds.10 mph38%29.99 "Hg10 mi
3:53 PM90 °FScattered clouds.12 mph37%30.01 "Hg10 mi
2:53 PM90 °FScattered clouds.12 mph35%30.03 "Hg10 mi
1:53 PM90 °FPassing clouds.13 mph35%30.03 "Hg10 mi
12:53 PM88 °FPassing clouds.6 mph40%30.04 "Hg10 mi
11:53 AM87 °FScattered clouds.9 mph39%30.06 "Hg10 mi
10:53 AM84 °FScattered clouds.7 mph38%30.08 "Hg10 mi
9:53 AM81 °FScattered clouds.6 mph49%30.08 "Hg10 mi
8:53 AM79 °FScattered clouds.3 mph60%30.08 "Hg10 mi
7:53 AM75 °FScattered clouds.No wind66%30.08 "Hg10 mi
Weather by CustomWeather, © 2015

See weather overviewHow to use our weather pages